When you browse on this site, cookies collect data to enhance your experience and personalize the content and advertising you see.
Visit our Privacy Policy to learn more. By continuing to use the site, you agree to this use of cookies and data.
  • In France
  • List of Countries
  • For 7 days
  • Water Temperature
  • Satellite Maps
  • Weather Map
  • Weather Widgets
  • user-avatar
    Login

    Hourly Weather Tibissa

    Today, 17 June, Monday

    Time Temperature Precipitation Wind Pressure Humidity
    00:00 +26°C° 0 mm 2 mps 686 mmHg 46%
    01:00 +25°C° 0 mm 1 mps 686 mmHg 47%
    02:00 +25°C° 0 mm 1 mps 685 mmHg 48%
    03:00 +25°C° 0 mm 2 mps 685 mmHg 48%
    04:00 +24°C° 0 mm 2 mps 685 mmHg 49%
    05:00 +24°C° 0 mm 2 mps 685 mmHg 51%
    06:00 +24°C° 0 mm 2 mps 685 mmHg 52%
    07:00 +24°C° 0 mm 3 mps 686 mmHg 54%
    08:00 +25°C° 0 mm 3 mps 686 mmHg 50%
    09:00 +26°C° 0 mm 3 mps 686 mmHg 46%
    10:00 +27°C° 0 mm 4 mps 686 mmHg 42%
    11:00 +28°C° 0 mm 4 mps 686 mmHg 38%
    12:00 +30°C° 0 mm 5 mps 686 mmHg 34%
    13:00 +32°C° 0 mm 6 mps 686 mmHg 30%
    14:00 +32°C° 0 mm 6 mps 686 mmHg 30%
    15:00 +32°C° 0 mm 7 mps 686 mmHg 29%
    16:00 +32°C° 0 mm 8 mps 685 mmHg 28%
    17:00 +30°C° 0.1 mm 7 mps 685 mmHg 31%
    18:00 +29°C° 0.1 mm 6 mps 686 mmHg 33%
    19:00 +28°C° 0.1 mm 6 mps 686 mmHg 36%
    20:00 +27°C° 0 mm 5 mps 686 mmHg 40%
    21:00 +26°C° 0 mm 4 mps 686 mmHg 43%
    22:00 +23°C° 0 mm 4 mps 686 mmHg 46%
    23:00 +24°C° 0 mm 3 mps 686 mmHg 48%

    Tomorrow, 18 June, Tuesday

    Time Temperature Precipitation Wind Pressure Humidity
    00:00 +23°C° 0 mm 2 mps 686 mmHg 50%
    01:00 +22°C° 0 mm 1 mps 686 mmHg 53%
    02:00 +22°C° 0 mm 1 mps 685 mmHg 53%
    03:00 +21°C° 0 mm 1 mps 685 mmHg 54%
    04:00 +21°C° 0 mm 1 mps 685 mmHg 54%
    05:00 +22°C° 0 mm 1 mps 685 mmHg 52%
    06:00 +22°C° 0 mm 1 mps 685 mmHg 49%
    07:00 +23°C° 0 mm 1 mps 686 mmHg 46%
    08:00 +24°C° 0 mm 1 mps 686 mmHg 39%
    09:00 +26°C° 0 mm 1 mps 687 mmHg 33%
    10:00 +28°C° 0 mm 1 mps 687 mmHg 26%
    11:00 +29°C° 0 mm 2 mps 687 mmHg 25%
    12:00 +30°C° 0 mm 2 mps 687 mmHg 23%
    13:00 +33°C° 0 mm 3 mps 688 mmHg 22%
    14:00 +33°C° 0 mm 3 mps 687 mmHg 21%
    15:00 +34°C° 0 mm 3 mps 687 mmHg 20%
    16:00 +34°C° 0 mm 3 mps 687 mmHg 19%
    17:00 +34°C° 0 mm 4 mps 687 mmHg 20%
    18:00 +33°C° 0 mm 4 mps 687 mmHg 21%
    19:00 +32°C° 0 mm 5 mps 687 mmHg 22%
    20:00 +30°C° 0 mm 4 mps 687 mmHg 23%
    21:00 +29°C° 0 mm 4 mps 687 mmHg 24%
    22:00 +28°C° 0 mm 4 mps 687 mmHg 25%
    23:00 +27°C° 0 mm 3 mps 687 mmHg 28%

    Day after tomorrow, 19 June, Wednesday

    Time Temperature Precipitation Wind Pressure Humidity
    00:00 +26°C° 0 mm 3 mps 687 mmHg 30%
    01:00 +25°C° 0 mm 2 mps 687 mmHg 32%
    02:00 +25°C° 0 mm 2 mps 686 mmHg 34%
    03:00 +24°C° 0 mm 2 mps 686 mmHg 35%
    04:00 +24°C° 0 mm 2 mps 686 mmHg 36%
    05:00 +25°C° 0 mm 2 mps 686 mmHg 33%
    06:00 +26°C° 0 mm 3 mps 686 mmHg 31%
    07:00 +27°C° 0 mm 3 mps 687 mmHg 29%
    08:00 +29°C° 0 mm 4 mps 687 mmHg 26%
    09:00 +30°C° 0 mm 5 mps 687 mmHg 24%
    10:00 +33°C° 0 mm 5 mps 688 mmHg 21%
    11:00 +35°C° 0 mm 5 mps 688 mmHg 19%
    12:00 +36°C° 0 mm 5 mps 688 mmHg 17%
    13:00 +37°C° 0 mm 5 mps 688 mmHg 15%
    14:00 +39°C° 0 mm 6 mps 688 mmHg 15%
    15:00 +39°C° 0 mm 6 mps 687 mmHg 15%
    16:00 +39°C° 0 mm 6 mps 687 mmHg 15%
    17:00 +38°C° 0 mm 6 mps 687 mmHg 18%
    18:00 +36°C° 0 mm 6 mps 687 mmHg 21%
    19:00 +34°C° 0 mm 6 mps 686 mmHg 24%
    20:00 +33°C° 0 mm 5 mps 687 mmHg 26%
    21:00 +30°C° 0 mm 3 mps 687 mmHg 29%
    22:00 +29°C° 0 mm 2 mps 687 mmHg 31%
    23:00 +28°C° 0 mm 1 mps 687 mmHg 33%

    20 June, Thursday

    Time Temperature Precipitation Wind Pressure Humidity
    00:00 +28°C° 0 mm 1 mps 686 mmHg 35%
    01:00 +25°C° 0 mm 0 mps 686 mmHg 36%
    02:00 +27°C° 0 mm 1 mps 686 mmHg 36%
    03:00 +26°C° 0 mm 1 mps 685 mmHg 36%
    04:00 +26°C° 0 mm 1 mps 685 mmHg 36%
    05:00 +27°C° 0 mm 1 mps 686 mmHg 33%
    06:00 +28°C° 0 mm 1 mps 686 mmHg 30%
    07:00 +30°C° 0 mm 2 mps 686 mmHg 28%
    08:00 +31°C° 0 mm 2 mps 687 mmHg 24%
    09:00 +34°C° 0 mm 2 mps 687 mmHg 21%
    10:00 +35°C° 0 mm 3 mps 687 mmHg 18%
    11:00 +36°C° 0 mm 2 mps 687 mmHg 17%
    12:00 +37°C° 0 mm 2 mps 687 mmHg 16%
    13:00 +37°C° 0 mm 2 mps 687 mmHg 15%
    14:00 +37°C° 0 mm 3 mps 687 mmHg 16%
    15:00 +37°C° 0 mm 3 mps 687 mmHg 17%
    16:00 +37°C° 0 mm 3 mps 686 mmHg 17%
    17:00 +34°C° 0.1 mm 5 mps 686 mmHg 23%
    18:00 +32°C° 0.1 mm 6 mps 686 mmHg 28%
    19:00 +29°C° 0.1 mm 8 mps 686 mmHg 33%
    20:00 +29°C° 0 mm 6 mps 686 mmHg 35%
    21:00 +28°C° 0 mm 4 mps 686 mmHg 36%
    22:00 +28°C° 0 mm 2 mps 686 mmHg 37%
    23:00 +28°C° 0 mm 2 mps 686 mmHg 35%

    21 June, Friday

    Time Temperature Precipitation Wind Pressure Humidity
    00:00 +28°C° 0 mm 2 mps 686 mmHg 33%
    01:00 +28°C° 0 mm 2 mps 686 mmHg 31%
    02:00 +28°C° 0 mm 3 mps 686 mmHg 31%
    03:00 +28°C° 0 mm 3 mps 685 mmHg 31%
    04:00 +27°C° 0 mm 3 mps 685 mmHg 31%
    05:00 +28°C° 0 mm 3 mps 685 mmHg 30%
    06:00 +29°C° 0 mm 3 mps 686 mmHg 29%
    07:00 +30°C° 0 mm 4 mps 686 mmHg 28%
    08:00 +33°C° 0 mm 5 mps 687 mmHg 24%
    09:00 +35°C° 0 mm 6 mps 687 mmHg 21%
    10:00 +38°C° 0 mm 7 mps 688 mmHg 18%
    11:00 +38°C° 0 mm 7 mps 688 mmHg 16%
    12:00 +39°C° 0 mm 7 mps 687 mmHg 15%
    13:00 +40°C° 0 mm 7 mps 687 mmHg 14%
    14:00 +40°C° 0 mm 7 mps 687 mmHg 14%
    15:00 +40°C° 0 mm 7 mps 686 mmHg 13%
    16:00 +40°C° 0 mm 7 mps 686 mmHg 13%
    17:00 +39°C° 0 mm 6 mps 686 mmHg 14%
    18:00 +39°C° 0 mm 5 mps 686 mmHg 14%
    19:00 +37°C° 0 mm 4 mps 686 mmHg 14%
    20:00 +35°C° 0 mm 4 mps 686 mmHg 17%
    21:00 +34°C° 0 mm 5 mps 686 mmHg 19%
    22:00 +32°C° 0 mm 5 mps 686 mmHg 21%
    23:00 +30°C° 0 mm 4 mps 686 mmHg 25%

    22 June, Saturday

    Time Temperature Precipitation Wind Pressure Humidity
    00:00 +29°C° 0 mm 4 mps 686 mmHg 29%
    01:00 +28°C° 0 mm 4 mps 686 mmHg 33%
    02:00 +28°C° 0 mm 4 mps 685 mmHg 32%
    03:00 +27°C° 0 mm 4 mps 685 mmHg 30%
    04:00 +27°C° 0 mm 5 mps 685 mmHg 29%
    05:00 +28°C° 0 mm 5 mps 686 mmHg 27%
    06:00 +29°C° 0 mm 6 mps 686 mmHg 25%
    07:00 +29°C° 0 mm 7 mps 687 mmHg 24%
    08:00 +32°C° 0 mm 8 mps 687 mmHg 21%
    09:00 +34°C° 0 mm 8 mps 688 mmHg 19%
    10:00 +37°C° 0 mm 9 mps 688 mmHg 16%
    11:00 +38°C° 0 mm 9 mps 688 mmHg 15%
    12:00 +39°C° 0 mm 8 mps 688 mmHg 14%
    13:00 +40°C° 0 mm 8 mps 688 mmHg 13%
    14:00 +40°C° 0 mm 7 mps 688 mmHg 13%
    15:00 +40°C° 0 mm 7 mps 688 mmHg 12%
    16:00 +40°C° 0 mm 6 mps 687 mmHg 12%
    17:00 +40°C° 0 mm 6 mps 687 mmHg 13%
    18:00 +39°C° 0 mm 5 mps 687 mmHg 13%
    19:00 +37°C° 0 mm 5 mps 688 mmHg 13%
    20:00 +36°C° 0 mm 4 mps 688 mmHg 16%
    21:00 +34°C° 0 mm 4 mps 688 mmHg 20%
    22:00 +32°C° 0 mm 4 mps 688 mmHg 23%
    23:00 +30°C° 0 mm 4 mps 688 mmHg 24%
    Show more